Location: Bruneau Dunes Observatory
(42.9024°N, 115.6902°W)
Time: 18:18:38
(UTC-06:00)

Daily predictions for brighter satellites

Satellite Brightness Start Highest point End
(mag) Time Altitude Azimuth Time Altitude Azimuth Time Altitude Azimuth
Cosmos 2278 Rocket 3.4 21:34:35 10° NW 21:39:52 41° WSW 21:45:08 10° S
Cosmos 1606 Rocket 3.9 21:35:28 10° NNW 21:39:56 74° W 21:44:18 10° S
Cosmos 1331 Rocket 4.1 21:38:12 10° NNW 21:43:26 83° WSW 21:48:36 10° SSE
ATLAS CENTAUR R/B 3.0 21:39:02 10° SW 21:43:53 51° NW 21:48:49 10° NNE
Cosmos 2034 Rocket 4.3 21:41:26 10° N 21:47:42 54° ENE 21:53:52 10° SSE
H-2A R/B 2.1 21:44:07 10° SSE 21:48:21 73° ENE 21:52:42 10° N
Atlas Centaur 2 4.0 21:44:23 10° SSW 21:50:16 25° SSE 21:56:44 10° ESE
Cosmos 1666 2.9 21:46:51 10° N 21:50:43 57° E 21:54:32 10° SSE
PSLV R/B 4.3 21:48:54 10° SE 21:51:38 29° ENE 21:54:24 10° N
SeaSat 1 2.9 21:47:39 10° SE 21:52:23 49° ENE 21:57:08 10° NNW
Meteor 1-15 Rocket 4.3 21:47:32 10° N 21:53:08 71° E 21:58:45 10° SSE
Cosmos 2369 Rocket 3.8 21:48:47 10° N 21:53:08 22° NE 21:57:25 10° E
Cosmos 1302 Rocket 4.1 21:48:23 10° NNW 21:53:38 73° ENE 21:58:52 10° SSE
Cosmos 1626 Rocket 4.0 21:52:51 10° SSE 21:57:02 43° E 22:01:14 10° NNE
CZ-4B R/B 4.5 21:53:24 10° NE 21:57:43 27° E 22:02:05 10° SSE
Cosmos 1939 Rocket 3.0 21:54:26 10° SSE 21:58:33 68° ENE 22:02:41 10° N
SL-16 R/B 2.5 21:55:04 10° SSW 22:00:43 73° WNW 22:06:24 10° NNE
Cosmos 1743 4.3 22:01:13 10° NNW 22:04:45 36° W 22:08:16 10° SSW
Cosmos 2228 3.1 22:02:14 10° N 22:06:40 89° W 22:11:05 10° S
Lacrosse 5 rocket 3.0 22:04:17 10° WSW 22:07:53 37° NW 22:11:43 10° NE
COSMOS 2455 3.4 22:04:20 10° S 22:09:47 37° ESE 22:15:15 10° NE
APEX 3.9 22:08:47 10° NNW 22:12:47 69° WSW 22:18:01 10° SSE
MetOp-B 4.4 22:09:21 11° SSE 22:14:22 55° ENE 22:19:36 10° N
BREEZE-M DEB (TANK) 3.1 22:15:40 10° WNW 22:17:59 28° SW 22:19:20 15° S
Abrixas rocket 3.3 22:19:04 10° WNW 22:22:14 35° SW 22:24:24 17° SSE
ERS-1 Rocket 4.0 22:19:15 10° S 22:24:00 44° W 22:28:49 10° NNW
ATLAS 3B R/B 3.7 22:17:48 10° SSE 22:24:13 30° ESE 22:30:33 10° NE
Envisat 3.1 22:23:08 10° S 22:28:13 77° WSW 22:33:19 10° NNW
Cosmos 1603 3.6 22:24:02 10° SSW 22:29:38 77° ESE 22:35:15 10° NNE
Cosmos 1346 Rocket 4.2 22:31:31 18° ESE 22:32:43 21° E 22:35:43 10° NE
Lacrosse 4 Rocket 3.0 22:35:28 16° ESE 22:35:28 16° ESE 22:37:58 10° ENE
USA 234 3.3 22:33:09 16° SE 22:38:36 85° NE 22:45:12 10° NW
YAOGAN 6 2.7 22:36:49 21° SSE 22:39:10 65° ENE 22:42:53 10° N
ISS -2.8 22:36:42 10° SSW 22:39:44 36° SE 22:42:47 10° ENE
PSLV R/B 3.7 22:36:56 10° WSW 22:40:19 43° SSE 22:42:18 21° ESE
USA 81 4.2 22:40:03 10° N 22:45:16 58° E 22:48:44 21° SSE
UNK 4.2 22:41:30 10° NNE 22:46:55 88° WNW 22:52:36 10° SSW
CZ-4 R/B 4.0 22:45:59 10° NNE 22:50:54 58° E 22:54:39 17° S
Cosmos 1461 4.0 22:48:40 10° NW 22:52:36 36° WSW 22:55:10 18° S
Cosmos 1943 3.4 22:49:02 12° S 22:54:08 51° ESE 22:59:38 10° NE
Tsikada Rocket 4.4 22:48:32 10° SSW 22:54:54 67° W 23:01:17 10° N
SPOT 5 3.7 22:54:49 11° SSW 22:58:44 40° W 23:02:50 10° NNW
Cosmos 1943 Rocket 3.5 22:57:05 10° N 23:01:52 28° NE 23:05:02 17° E
Landsat 7 4.1 23:02:09 28° SE 23:04:28 54° ENE 23:09:07 10° N
Cosmos 1992 Rocket 4.0 23:00:09 10° NNW 23:05:25 85° WSW 23:08:21 27° SSE
SAR-Lupe-2 4.4 23:05:05 31° ESE 23:05:59 37° ENE 23:09:20 10° N
Cosmos 1825 Rocket 3.5 23:03:51 22° S 23:06:42 82° E 23:11:10 10° N
SL-08 RB Rocket 3.6 23:05:28 29° SSE 23:07:49 80° ENE 23:12:22 10° N
Cosmos 1766 4.0 23:04:59 10° N 23:08:46 39° ENE 23:09:49 33° ESE
H-2A R/B 2.4 23:09:27 29° SE 23:11:41 49° ENE 23:16:33 10° N
Terra 2.1 23:18:26 34° SE 23:20:16 55° ENE 23:24:55 10° N
SPOT 1/Viking Rocket 4.1 23:17:00 20° S 23:20:22 54° W 23:25:26 10° NNW
Geosat 3.9 23:15:52 10° NNE 23:20:54 73° ESE 23:24:33 19° SSW
Cosmos 1190 Rocket 3.9 23:20:42 19° SSW 23:24:34 83° ESE 23:29:56 10° NNE
CZ-4C R/B 3.5 23:24:35 36° S 23:26:15 73° WSW 23:30:22 10° NNW
SeaSat 1 4.2 23:26:57 13° SSW 23:30:05 24° WSW 23:34:03 10° NW
DMSP B5D2-2 4.2 23:27:19 10° NNE 23:32:32 57° E 23:34:22 37° SSE
Cosmos 1634 Rocket 4.3 23:28:19 10° NNW 23:34:24 61° W 23:38:18 23° SSW
ARGOS 3.8 23:33:36 23° SSW 23:36:43 50° W 23:42:00 10° NNW
Cosmos 2369 Rocket 2.4 23:32:02 10° NNW 23:37:40 65° WSW 23:40:04 34° S
Atlas Centaur 2 3.6 23:32:01 10° WSW 23:39:05 34° S 23:40:54 31° SSE
Cosmos 676 Rocket 4.0 23:38:47 35° S 23:41:00 70° ESE 23:46:20 10° NNE
Cosmos 1805 3.9 23:39:28 10° N 23:43:13 40° ENE 23:43:26 40° E
Cosmos 1900 4.3 23:40:59 32° SSW 23:43:23 71° ESE 23:48:31 10° NE
Cosmos 1953 2.5 23:41:37 10° N 23:45:33 54° E 23:45:51 52° E
Cosmos 1140 Rocket 3.9 23:49:15 39° ESE 23:49:47 41° ESE 23:54:42 10° NE
